Theta_e
320 320 322 324 326 326 323 317 324 331 338 346 347 347 345 345 343 343 343 341 340 340 339 337 337 336 337 336 336 333 333 332 331 330 328 328 328 330 329 330 330 330 329
320 320 320 323 326 326 326 325 317 325 337 344 346 345 343 343 342 339 341 340 339 340 338 337 336 336 336 335 332 332 331 330 330 329 329 330 329 329 329 329 327 327 329
318 319 320 322 323 325 326 326 324 316 331 342 345 344 343 343 343 342 340 339 339 339 337 337 337 337 335 335 334 333 331 330 329 329 328 328 328 328 327 327 326 328 327
315 317 319 319 321 322 325 326 325 316 319 336 342 343 341 340 339 339 340 340 339 338 337 336 336 336 333 333 333 332 330 330 328 327 327 326 326 328 328 325 326 326 327
310 311 315 317 318 321 323 325 330 326 322 331 339 342 341 340 339 339 339 339 339 338 337 336 336 335 334 332 331 330 330 329 328 327 326 326 326 324 326 327 325 325 323
307 308 309 312 316 318 322 323 324 334 333 334 337 338 338 341 340 338 338 337 337 337 336 335 334 333 331 330 329 329 328 327 326 326 326 326 326 322 324 326 325 324 324
304 305 307 309 311 315 319 322 323 326 332 336 337 338 338 340 338 338 337 337 335 335 334 333 332 331 330 330 328 328 326 326 322 322 323 324 325 325 323 322 323 323 322
302 303 304 305 309 312 316 320 322 322 325 331 337 337 337 336 337 335 336 336 334 333 332 332 331 331 329 328 327 327 326 323 324 323 324 323 324 323 324 323 321 323 321
302 302 302 303 305 309 312 317 321 323 323 326 331 333 332 331 329 330 327 330 332 332 331 330 329 329 328 327 327 326 323 325 325 325 323 324 323 323 322 322 322 322 323
301 302 301 301 303 307 310 315 320 324 323 323 326 328 329 329 326 324 321 326 326 328 329 328 329 327 326 327 325 323 326 325 325 324 324 324 323 324 323 320 321 319 320
301 301 301 301 301 306 310 312 316 324 325 323 324 326 328 328 324 323 324 326 327 327 328 328 327 327 327 325 324 325 324 321 323 322 322 322 323 321 320 321 320 320 318
302 302 301 301 301 303 307 311 315 322 324 325 327 326 327 325 325 323 322 322 326 328 327 326 324 324 323 322 324 324 322 322 321 320 321 322 321 320 320 320 319 318 316
305 304 303 303 301 302 305 310 313 316 324 323 324 325 324 324 324 323 324 325 325 325 323 322 322 325 322 322 323 323 321 321 321 320 321 321 321 321 320 319 318 316 313
306 306 305 303 302 301 305 310 312 315 322 324 323 324 324 323 322 323 324 323 322 322 321 320 323 324 322 322 322 322 322 321 321 320 321 320 319 319 318 317 315 313 311
305 306 306 303 302 301 305 311 312 315 320 322 321 321 320 320 319 320 321 319 320 320 321 321 322 323 323 323 323 322 321 320 318 317 317 317 316 316 315 314 311 311 308
305 306 306 303 303 303 306 311 312 314 317 321 320 317 317 318 318 317 318 318 318 318 318 318 318 320 322 322 322 320 319 316 315 314 313 311 310 309 309 310 309 309 307
304 306 305 305 303 305 311 311 311 313 313 320 317 316 316 316 317 317 316 317 317 318 319 319 319 318 320 321 320 319 316 313 311 310 309 304 303 305 303 301 299 298 297
302 307 306 306 308 309 310 311 312 313 313 318 318 317 318 317 316 315 316 316 316 316 317 317 317 318 316 317 318 316 312 309 308 306 305 302 300 299 299 298 297 297 296
301 304 306 307 305 306 307 308 312 313 314 316 317 317 317 315 315 315 315 315 315 314 315 315 314 313 310 314 315 313 308 304 302 302 302 302 300 299 299 298 296 295 294
300 301 306 305 302 302 305 306 312 313 314 316 317 316 315 315 315 315 314 313 312 311 311 310 309 308 306 310 311 307 305 304 302 301 300 300 299 297 296 294 293 292 291
299 303 303 303 303 302 303 304 310 312 312 316 316 315 314 314 314 313 312 310 309 308 307 306 305 305 305 304 304 303 304 302 301 300 300 298 296 294 294 293 292 292 291
299 302 302 302 302 302 303 304 305 310 312 315 315 314 313 312 312 310 308 308 307 305 304 304 304 303 303 303 302 301 301 301 301 299 297 296 295 294 293 292 292 291 291
300 301 300 301 300 300 302 304 305 308 313 314 313 312 311 310 310 308 306 305 305 305 304 304 304 303 303 301 300 300 300 300 299 299 297 296 295 294 293 292 291 291 290
300 299 300 301 301 301 304 308 305 307 313 313 312 311 310 308 307 306 306 306 305 305 305 305 305 303 302 301 301 300 300 299 298 297 296 294 293 292 291 290 290 290 289
299 299 300 301 301 301 304 310 306 313 313 312 311 310 309 308 307 307 307 308 308 307 306 305 304 303 302 301 302 301 299 298 296 294 293 292 291 291 290 290 289 289 288
299 299 299 300 301 300 306 311 313 313 312 311 310 309 308 308 307 305 305 305 306 305 304 303 303 302 302 301 300 299 298 296 294 293 292 291 291 291 290 290 289 288 288
Wind_Speed
13 17 19 19 19 16 15 13 17 23 23 26 25 24 23 20 18 16 14 14 14 14 14 12 13 11 10 12 10 8 7 5 6 5 2 1 3 5 5 3 4 3 6
14 17 22 22 21 21 18 15 16 20 24 26 26 25 24 20 19 16 15 16 15 15 15 14 13 12 11 11 11 9 7 4 7 5 5 4 5 6 3 3 5 5 5
14 15 19 22 23 24 24 20 17 19 24 26 22 19 18 15 16 17 17 17 17 16 15 14 13 13 12 12 11 11 9 6 7 7 5 3 4 6 2 2 4 6 6
16 15 17 22 24 25 24 23 16 14 20 24 24 25 25 24 23 23 22 20 18 17 16 14 14 14 11 11 10 9 9 9 8 5 6 3 4 2 2 3 3 5 4
14 16 18 21 23 24 26 25 20 7 12 20 25 24 24 22 20 22 21 19 18 17 16 15 15 14 12 11 11 10 9 8 7 8 6 5 1 2 2 2 3 3 4
14 15 20 22 23 25 26 32 30 14 5 14 21 23 21 22 20 23 24 21 18 17 16 15 14 14 12 12 12 9 8 7 5 6 5 6 3 1 3 1 2 1 1
17 17 18 20 25 28 28 29 29 20 11 8 16 19 18 18 21 24 28 24 20 18 17 16 15 14 13 11 9 9 9 8 7 7 7 6 2 2 3 3 2 1 1
16 18 19 21 22 24 25 26 34 35 25 16 12 13 14 15 21 16 15 23 20 18 17 16 14 14 13 12 10 10 9 9 8 8 7 6 4 3 2 1 3 1 1
15 16 24 24 25 24 26 28 25 21 19 14 9 10 16 20 17 19 2 10 12 15 16 14 15 15 14 12 10 10 8 7 8 8 7 5 4 3 2 2 0 1 2
16 16 17 24 23 21 19 21 21 16 14 8 5 14 19 22 22 25 29 16 12 15 14 15 16 16 15 12 11 10 8 8 6 5 7 6 5 5 4 3 1 2 1
15 16 18 22 21 19 22 21 19 18 13 7 6 13 19 22 22 24 21 12 12 16 15 16 17 18 15 13 11 8 9 9 8 6 6 5 5 5 5 2 1 2 4
17 15 17 21 22 17 16 15 16 14 8 7 4 8 12 14 27 27 26 18 13 15 16 14 17 15 17 16 11 11 12 11 9 7 7 6 6 5 4 2 2 3 3
21 18 15 16 18 17 16 16 14 14 10 1 2 4 7 13 18 20 22 24 20 17 17 16 15 16 19 16 13 12 13 11 9 8 7 7 6 4 2 3 3 6 7
20 18 15 14 16 16 15 15 15 14 10 8 3 4 7 10 15 18 22 21 18 18 18 16 14 16 18 16 13 14 15 12 9 8 9 8 5 3 5 5 8 11 13
24 21 16 13 15 16 14 13 13 13 9 9 9 8 8 10 15 23 23 19 18 18 18 18 15 16 17 17 17 18 15 14 16 15 12 10 8 7 8 13 13 16 18
21 20 14 11 14 15 13 12 13 11 14 10 10 11 12 16 17 19 21 17 16 16 14 15 15 15 14 16 19 20 22 22 23 27 28 27 26 26 23 20 17 14 16
20 14 9 9 13 14 12 15 16 11 16 12 12 18 20 18 16 16 16 16 15 13 13 13 14 15 16 19 21 23 26 24 24 26 26 25 24 25 28 29 29 27 23
17 13 9 10 14 14 15 17 14 9 16 17 19 17 18 17 15 14 15 14 15 16 17 17 17 20 24 23 26 27 28 27 25 23 23 21 19 18 21 23 24 23 22
15 14 13 11 15 18 19 20 9 8 12 16 21 20 18 19 18 19 18 19 20 21 22 23 27 29 25 26 30 33 33 31 24 21 19 19 20 20 20 22 24 23 22
12 17 14 14 20 21 18 16 13 9 7 19 18 20 20 23 22 24 24 24 26 27 27 27 28 29 28 31 34 29 28 26 24 22 21 20 21 20 18 19 19 20 16
12 9 11 17 21 24 20 16 15 14 5 20 24 21 19 25 26 28 28 29 29 29 28 29 25 27 30 28 29 25 25 25 25 23 21 19 20 20 19 18 18 19 17
12 9 16 21 26 26 21 20 16 14 10 24 24 24 24 26 30 31 29 31 32 30 27 26 26 25 25 24 21 21 23 23 25 23 22 22 22 22 21 21 20 17 15
10 14 17 23 30 29 23 21 21 15 15 26 24 27 28 29 31 32 30 26 28 28 25 25 24 24 23 22 23 25 25 24 25 23 25 25 23 22 21 19 16 14 13
10 17 19 23 27 32 30 23 21 17 28 27 27 28 29 27 27 28 29 28 26 26 26 24 25 25 25 23 22 24 26 28 31 29 25 20 18 18 18 16 14 14 13
11 18 19 26 27 38 36 12 24 27 28 29 27 27 28 27 26 25 25 24 23 24 28 25 26 29 25 21 23 23 25 25 25 25 21 17 15 16 15 14 14 12 11
12 17 22 25 33 38 34 22 31 34 30 28 26 27 28 26 27 27 24 17 23 23 23 26 27 24 25 29 25 24 24 27 23 19 18 16 15 15 14 13 12 11 10
Wind_Direction
353 359 356 349 341 327 309 278 245 231 222 214 207 207 209 209 209 211 206 196 195 185 177 172 168 170 170 172 163 163 172 166 177 165 173 193 210 220 221 225 259 255 224
357 1 360 356 351 339 327 307 263 240 225 217 213 210 207 203 203 216 200 191 189 185 179 172 172 172 173 170 171 178 163 182 194 236 250 222 214 222 212 226 247 249 222
357 359 359 0 356 348 337 322 290 247 226 218 217 206 183 176 181 191 190 192 193 188 185 179 178 175 178 179 179 195 193 184 198 223 267 242 251 162 183 221 233 234 228
358 360 357 356 360 355 347 338 316 259 230 216 211 198 194 188 198 187 184 188 192 191 187 184 181 179 179 178 190 198 206 209 189 197 221 271 315 280 168 186 215 253 242
4 1 357 352 352 358 360 355 343 291 228 215 213 215 221 220 191 176 180 181 186 190 188 181 181 182 183 182 183 185 201 208 195 208 202 226 271 334 297 179 189 223 211
6 1 2 360 351 353 6 8 352 353 244 212 213 215 222 221 188 174 170 172 174 177 179 178 180 179 178 181 184 190 196 188 186 191 200 225 227 225 281 274 128 198 161
356 354 356 0 357 350 358 17 353 346 360 232 231 213 211 204 201 184 168 168 171 174 177 178 179 180 178 176 178 184 179 189 203 211 220 238 201 196 202 165 171 135 80
350 344 344 350 358 349 351 10 1 349 360 312 246 217 200 188 175 162 178 165 167 171 173 175 178 179 174 168 178 184 176 184 192 199 198 201 198 202 226 128 136 123 99
345 340 333 341 348 353 352 359 0 346 317 292 251 203 179 165 148 141 22 51 149 166 165 166 169 169 171 177 176 169 179 181 176 168 175 186 171 170 150 182 53 185 177
338 337 334 331 337 344 347 347 349 322 336 323 229 176 157 151 137 140 151 243 177 153 158 163 167 167 175 174 164 163 160 151 141 161 169 165 166 151 146 142 149 183 88
328 329 329 327 319 325 335 347 336 327 345 351 144 151 136 135 146 147 149 181 192 154 162 167 172 172 171 157 168 170 153 145 148 148 153 161 151 147 144 128 133 119 149
318 312 311 314 312 314 321 325 322 320 324 352 78 108 119 134 137 148 157 180 187 163 163 165 168 177 175 169 160 146 137 145 150 164 160 158 154 143 152 158 159 175 151
319 316 306 301 303 305 312 316 315 326 286 205 298 172 167 162 154 158 163 170 168 161 162 164 176 179 173 168 160 142 139 150 159 173 176 166 150 141 158 167 143 153 131
324 318 308 295 298 297 301 307 306 310 279 225 178 222 179 168 158 155 162 157 158 151 156 169 171 166 167 163 152 142 146 152 154 178 159 143 150 146 140 143 135 134 122
325 317 307 294 302 293 294 297 296 315 290 237 182 211 182 160 152 146 146 154 151 155 160 166 161 158 159 164 159 149 143 136 125 111 102 98 104 114 126 128 121 125 119
323 307 303 293 297 293 294 298 299 293 314 214 186 182 169 151 142 138 139 143 146 158 162 165 162 155 157 161 156 149 137 132 125 112 106 101 99 93 94 103 105 108 117
334 331 315 298 298 294 300 300 299 292 315 210 174 161 144 134 134 142 144 146 144 154 162 162 163 157 157 164 155 148 138 134 124 122 119 109 101 106 100 90 85 80 80
341 346 345 335 330 318 324 307 291 289 317 202 167 165 159 150 144 142 137 139 147 149 150 150 154 157 149 157 153 144 134 126 122 117 112 106 103 103 103 98 91 83 75
319 322 339 356 346 339 329 326 287 272 292 176 167 168 162 149 149 147 143 141 137 133 132 135 136 132 132 151 146 137 128 112 107 103 105 107 106 106 106 104 100 93 86
285 303 311 325 338 336 326 322 288 260 280 174 176 166 162 154 152 148 141 136 133 125 127 120 127 129 125 132 135 128 122 117 112 104 102 104 107 105 104 105 106 101 98
332 328 330 324 326 328 324 308 286 252 257 179 176 159 156 156 151 147 146 137 127 122 117 116 115 117 126 127 129 124 124 123 117 113 109 106 103 102 101 100 102 105 107
349 355 326 332 328 324 312 294 275 268 259 177 161 149 154 149 147 145 139 136 130 121 117 113 108 109 116 120 120 124 123 123 119 117 116 113 105 100 97 98 103 101 96
349 345 336 328 326 319 304 276 258 251 203 161 148 144 148 146 149 142 135 129 131 128 125 119 117 115 115 115 119 117 117 116 115 119 120 114 108 103 98 98 96 92 89
340 341 332 330 320 317 308 287 230 233 166 154 146 145 140 140 142 140 140 138 138 135 132 130 126 124 123 128 125 119 114 114 114 117 117 115 111 106 101 92 86 86 86
341 341 326 321 317 322 315 254 198 175 157 144 144 140 139 139 136 138 142 145 148 146 141 138 138 135 136 143 139 136 129 128 128 125 121 116 112 106 100 94 90 86 84
344 334 335 326 328 333 333 161 165 156 146 141 142 140 137 135 129 122 113 125 141 143 138 138 139 132 139 146 139 136 141 135 131 125 123 120 115 111 109 104 99 92 88